Regional Weather Roundup
Issued by NWS Mt. Holly, NJ

Home | Current Version | Previous Version | Text Only | Print | Product List | Glossary On
Versions: 1 2 3 4 5 6 7 8 9 10 11 12 13 14 15 16 17 18 19 20 21 22 23 24 25 26 27 28 29 30 31 32 33 34 35 36 37 38 39 40 41 42 43 44 45 46 47 48 49 50
000
ASUS41 KPHI 241812
RWRPHI

REGIONAL WEATHER ROUNDUP
NATIONAL WEATHER SERVICE MOUNT HOLLY NJ
200 PM EDT FRI MAR 24 2017

NOTE:  "FAIR" INDICATES FEW OR NO CLOUDS BELOW 12,000 FEET WITH NO
SIGNIFICANT WEATHER AND/OR OBSTRUCTIONS TO VISIBILITY.

 * = STATION DOES NOT REPORT PRECIPITATION (E.G. RAIN, SNOW, ETC.)
        OR FOG.

NJZ015>026-241900-
SOUTHERN NEW JERSEY

CITY           SKY/WX    TMP DP  RH WIND       PRES   REMARKS
POMONA         CLOUDY    55  24  30 SW17G26   30.33F
6HR MIN TEMP:  37; 6HR MAX TEMP:  55;

WILDWOOD*      CLOUDY    53  35  50 S14       30.36F
MILLVILLE      CLOUDY    55  31  39 SW13G21   30.33F
WRIGHTSTOWN    CLOUDY    52  28  39 SW16      30.27F
MOUNT HOLLY    CLOUDY    53  29  39 S13G21    30.29F
TRENTON        CLOUDY    49  29  46 SW10G20   30.28F
6HR MIN TEMP:  32; 6HR MAX TEMP:  49;


$$
NJZ001>014-241900-
NORTHERN NEW JERSEY

CITY           SKY/WX    TMP DP  RH WIND       PRES   REMARKS
SUSSEX         CLOUDY    39  35  86 SW6       30.23F WCI  35
ANDOVER*         N/A     40  33  76 VRB5      30.23F
MORRISTOWN     CLOUDY    45  32  61 SW14G21   30.27F
NEWARK         CLOUDY    47  28  47 SW15G24   30.27F
TETERBORO      LGT RAIN  45  30  55 SW13G21   30.26F
CALDWELL       CLOUDY    44  29  55 SW9       30.26F
SOMERVILLE     CLOUDY    47  29  49 VRB5      30.25F
ALLAIRE*       CLOUDY    53  23  31 SW12G25   30.28F
TOMS RIVER*    CLOUDY    54  26  34 SW21G26   30.29F

$$
PAZ043-044-047-054-055-060>062-066>071-241900-
EASTERN PENNSYLVANIA

CITY           SKY/WX    TMP DP  RH WIND       PRES   REMARKS
PHILADELPHIA   CLOUDY    55  29  36 SW22G30   30.29F
6HR MIN TEMP:  33; 6HR MAX TEMP:  55;

NORTH PHILA    CLOUDY    54  29  38 SW18G26   30.29F
BLUE BELL*     CLOUDY    50  32  50 SW13      30.27F
QUAKERTOWN*    CLOUDY    46  28  49 SW10      30.27F
PERKASIE*      CLOUDY    46  28  49 SW9       30.27F
POTTSTOWN      CLOUDY    47  27  45 S8        30.29F
LANCASTER      SUNNY     52  36  54 S10       30.26F
COATESVILLE    MOSUNNY   48  30  49 S9G18     30.28F
READING        MOSUNNY   51  33  50 SW16      30.26F
6HR MIN TEMP:  37; 6HR MAX TEMP:  51; 6HR PCP: TRACE;

ALLENTOWN      CLOUDY    47  29  49 SW14      30.27F
6HR MIN TEMP:  35; 6HR MAX TEMP:  47; 6HR PCP: TRACE;

MOUNT POCONO   CLOUDY    33  32  96 SW14      30.17F WCI  23
6HR MIN TEMP:  28; 6HR MAX TEMP:  33; 6HR PCP:  0.09;

HAZLETON       SUNNY     45  32  61 S7        30.22F
LEHIGHTON      FAIR      43  32  65 SW7       30.27F
WILKES BARRE   MOSUNNY   41  34  76 SW8       30.18F

$$
DEZALL-MDZ008-012-015-019-020-241900-
DELAWARE AND EASTERN MARYLAND

CITY           SKY/WX    TMP DP  RH WIND       PRES   REMARKS
WILMINGTON     CLOUDY    53  31  42 SW20G28   30.32F
6HR MIN TEMP:  35; 6HR MAX TEMP:  53;

DOVER          CLOUDY    57  33  39 SW24G36   30.30F
GEORGETOWN     MOSUNNY   61  28  28 MISG      30.35F
6HR MIN TEMP:  33; 6HR MAX TEMP:  61; 6HR PCP: TRACE;

EASTON         CLOUDY    55  28  35 SW15G25   30.38F
ABERDEEN       PTSUNNY   51  34  51 SW17G25   30.32F
PATUXENT       CLOUDY    53  33  46 S9        30.35F
OCEAN CITY     PTSUNNY   51  35  54 SW15      30.39F
WALLOPS ISLAND PTSUNNY   52  39  61 S20       30.39F
CAMBRIDGE      SUNNY     54  28  37 SW14G21   30.35F
SALISBURY      MOSUNNY   61  28  28 SW14      30.36F

$$
PAZ001-021-NYZ056-072-MDZ011-DCZ001-241900-
OTHER NEARBY LOCATIONS

CITY           SKY/WX    TMP DP  RH WIND       PRES   REMARKS
HARRISBURG     PTSUNNY   51  38  60 VRB7      30.25F
STATE COLLEGE  CLOUDY    52  37  58 SW8       30.16F
WILLIAMSPORT   MOSUNNY   47  32  56 SE10G18   30.19F
BINGHAMTON     RAIN      35  34  96 S8        30.09F WCI  29
NEW YORK CITY  CLOUDY    46  28  49 VRB7G21   30.28F
BALTIMORE      CLOUDY    52  35  52 SW12G18   30.30F
WASHINGTON DC  PTSUNNY   53  36  52 SW17G23   30.32F

$$



USA.gov is the U.S. government's official web portal to all federal, state and local government web resources and services.